Terug naar catalogus

STARLINK-35776

ActiefCommunicatieVLEO
NORAD 66282·PAYLOAD·🇺🇸 United States

Gelanceerd Oct 31, 2025 vanaf Vandenberg Space Force Base

Loading…

Volgende Passages (komende 24 uur)

TLE

VersSource: CelesTrak SupGP

Epoch: Sep 14, 2026, 15:40 UTC

1 66282C 25247T   26257.65326389 -.00079923  00000+0 -23619-2 0  2579
2 66282  53.1606  30.7847 0001281  85.9437   9.4297 15.34423472    11

Volg STARLINK-35776 in realtime met AllMySat

Download on the App Store